Commit Graph

608 Commits

Author SHA1 Message Date
GeorgeSG cddd5a66ad Update dev dashboard with state-switch 2020-05-07 02:17:06 +03:00
GeorgeSG 218a4e00b5 use time picker card :) 2020-05-07 02:06:15 +03:00
GeorgeSG 1c43cfce31 Add time-picker-card from hacs 2020-05-07 02:06:04 +03:00
GeorgeSG a0d6582e96 add tap_action none 2020-05-06 13:54:49 +03:00
GeorgeSG de1d084185 update resources 2020-05-06 13:46:07 +03:00
GeorgeSG 19d2993390 Fix motion definition 2020-05-06 13:44:01 +03:00
GeorgeSG 9217caba9e yamllint 2020-05-06 04:32:08 +03:00
GeorgeSG 94581b73b9 Define motion sensors. Add new sensors on living room dashboard. 2020-05-06 03:48:43 +03:00
GeorgeSG 4294bbc06f Update test dashboard 2020-05-06 03:03:21 +03:00
GeorgeSG 81b3323616 Tweak kitchen lighting automations: 2020-05-06 02:36:42 +03:00
GeorgeSG 89297d77cb Add zwave devices 2020-05-06 01:10:45 +03:00
GeorgeSG 9b6492e5d3 Update compose to pass z-wave stick 2020-05-05 21:25:15 +03:00
GeorgeSG 9e4cc97629 Fix green color 2020-05-03 20:50:57 +03:00
GeorgeSG 85ebbe30d5 Better log formatting 2020-05-03 20:47:16 +03:00
GeorgeSG d389d21343 Upload bin files 2020-05-03 20:21:48 +03:00
GeorgeSG 6a6f7ade34 Add test cards 2020-05-03 20:13:19 +03:00
GeorgeSG d6ad40a621 Refactor conditions and triggers based on sun 2020-05-03 15:52:26 +03:00
GeorgeSG c0c0beafd0 Tweak kitchen light conditions 2020-05-03 15:48:21 +03:00
GeorgeSG cf611f6cc7 Tweak kitchen light on automation 2020-05-03 15:33:17 +03:00
GeorgeSG 82eea889a0 Add tasmo admin panel 2020-05-03 15:25:45 +03:00
GeorgeSG d3b10bd4f0 Tweak purifier automations 2020-05-03 13:27:44 +03:00
GeorgeSG c20ea1fc4d Rever spotify config 2020-05-03 12:49:48 +03:00
GeorgeSG 3ce8daa9fc Leave a better trail of dependencies 2020-05-03 12:05:02 +03:00
GeorgeSG cf8b747c42 Remove configurations that are configured with config_flow. Backup 2020-05-03 11:59:26 +03:00
GeorgeSG 347cce19b2 Comment out plex config 2020-05-03 11:38:27 +03:00
GeorgeSG 8067aa0f88 0.109.3 2020-05-03 11:30:33 +03:00
GeorgeSG 8071c9f073 Remove thermal mount 2020-05-03 11:30:22 +03:00
GeorgeSG dcdb36633b Dont turn on the entrance lights in the wake up routine 2020-05-03 11:21:31 +03:00
GeorgeSG aca5ba85a5 Tweak climate cards and charts 2020-05-03 04:04:31 +03:00
GeorgeSG 1a80a6223f Extract scene button template 2020-05-03 03:16:03 +03:00
GeorgeSG 78345828ae Tweak progress buttons 2020-05-03 03:06:27 +03:00
GeorgeSG 095453b76d Update weather friendly names 2020-05-03 02:58:35 +03:00
GeorgeSG 27452cc15d Add allergen index card 2020-05-03 02:54:31 +03:00
GeorgeSG 7cea30cb61 Extract and streamline target humidity card 2020-05-03 02:53:00 +03:00
GeorgeSG 7e537db5f6 revert air quality unit of measurement - doesn't look good 2020-05-03 02:43:57 +03:00
GeorgeSG a1a6c4f7a0 Add titanium automation 2020-05-03 02:43:33 +03:00
GeorgeSG 072ff595a9 Tweak cobalt temperature card 2020-05-03 02:29:21 +03:00
GeorgeSG d6f5fa0703 Add cobalt and titanium sensors 2020-05-03 02:25:12 +03:00
GeorgeSG f0c2cac988 Add cobalt CPU sensor 2020-05-03 01:59:57 +03:00
GeorgeSG c79bf6c5e8 Mount thermal reading 2020-05-03 01:50:36 +03:00
GeorgeSG 3c02527c78 Minor tweaks 2020-05-03 01:41:17 +03:00
GeorgeSG 74395b16c8 Request updates of purifier manually 2020-05-03 00:50:59 +03:00
GeorgeSG d36accaabc Rename switch.titanium_power to just titanium 2020-05-03 00:44:15 +03:00
GeorgeSG 8001ec641d Refactor browser_mod to use lights. Plug in routines 2020-05-03 00:42:22 +03:00
GeorgeSG 5917fb5607 Improved Purifier UI and automation 2020-05-03 00:25:38 +03:00
GeorgeSG ad29d41b6e Fix border-radius in percentage card 2020-05-02 21:08:41 +03:00
GeorgeSG 78f413943b Tweak sonos cards 2020-05-02 20:36:09 +03:00
GeorgeSG bb4cc4d4ab use input_select.select_next 2020-05-02 20:19:37 +03:00
GeorgeSG 345f11c374 Always turn on the hallway light on motion 2020-05-02 20:14:29 +03:00
GeorgeSG c3acb38709 Update philips_airpurifier to be compatible with 1.0 2020-05-02 20:13:58 +03:00